This demonstration page uses our WeatherBlox Daily Observations layout. Learn more.

Left ArrowRight Arrow

39.92423, -83.80882

Hourly Observations for January 20, 2015

Temp ( °F °C ) Dew Point ( °F °C ) Humidity (%) Winds ( mph kmh ) Pressure ( in mb ) Visibility ( mi km ) Precip ( " mm )
12:56 am 00:56 Mostly Cloudy 30 -1.1 29 -1.6 96 96 SSE 5 7 29.93 1014 7 11 0.00 0.00
1:56 am 01:56 Cloudy 32 0 30 -1.1 92 92 SSE 3 6 29.93 1013 8 13 0.00 0.00
2:56 am 02:56 Mostly Cloudy 32 0 30 -1.1 92 92 SSE 5 7 29.92 1013 7 11 0.00 0.00
3:56 am 03:56 Cloudy 32 0 30 -1.1 92 92 SSE 6 9 29.91 1013 7 11 0.00 0.00
4:56 am 04:56 Cloudy 33 0.5 30 -1.1 89 89 SSE 5 7 29.91 1013 8 13 0.00 0.00
5:56 am 05:56 Cloudy 33 0.5 30 -1.1 89 89 SSE 3 6 29.91 1013 8 13 0.00 0.00
6:56 am 06:56 Cloudy 32 0 30 -1.1 92 92 Calm 29.92 1013 7 11 0.00 0.00
7:56 am 07:56 Cloudy with Mist and Fog 33 0.5 30 -1.1 89 89 SSE 3 6 29.92 1013 6 10 0.00 0.00
8:56 am 08:56 Partly Cloudy with Mist and Fog 33 0.5 31 -0.5 93 93 SSE 5 7 29.93 1014 5 8 0.00 0.00
9:56 am 09:56 Cloudy with Mist and Fog 36 2.2 32 0 86 86 Calm 29.94 1014 5 8 0.00 0.00
10:56 am 10:56 Cloudy with Haze 38 3.3 33 0.5 82 82 SSE 5 7 29.98 1015 6 10 0.00 0.03
11:56 am 11:56 Mostly Sunny 44 6.6 35 1.6 71 71 SSE 6 9 29.96 1014 9 14 0.00 0.03
12:56 pm 12:56 Sunny 45 7.2 36 2.2 71 71 SE 7 11 29.93 1013 9 14 0.00 0.00
1:56 pm 13:56 Mostly Sunny 47 8.3 36 2.2 66 66 SSE 3 6 29.92 1013 8 13 0.00 0.00
2:56 pm 14:56 Cloudy 46 7.7 36 2.2 68 68 Calm 29.93 1013 8 13 0.00 0.00
3:56 pm 15:56 Cloudy 46 7.7 36 2.2 68 68 SSE 6 9 29.94 1014 9 14 0.00 0.00
4:56 pm 16:56 Mostly Cloudy 44 6.6 36 2.2 74 74 SE 6 9 29.95 1014 8 13 0.00 0.00
5:56 pm 17:56 Mostly Clear 38 3.3 33 0.5 82 82 SE 7 11 29.97 1015 9 14 0.00 0.00
6:56 pm 18:56 Clear 34 1.1 32 0 92 92 ESE 8 13 30.00 1016 9 14 0.00 0.00
7:56 pm 19:56 Cloudy 37 2.7 35 1.6 93 93 ESE 8 13 30.00 1016 7 11 0.00 0.00
8:56 pm 20:56 Cloudy with Mist and Fog 36 2.2 34 1.1 93 93 SE 7 11 29.98 1015 5 8 0.00 0.00
9:56 pm 21:56 Cloudy with Mist and Fog 35 1.6 33 0.5 93 93 SSE 5 7 29.98 1015 5 8 0.00 0.00
10:56 pm 22:56 Cloudy with Mist and Fog 36 2.2 34 1.1 93 93 SE 8 13 29.98 1015 5 8 0.00 0.00
11:56 pm 23:56 Cloudy with Mist and Fog 37 2.7 34 1.1 89 89 SSE 6 9 29.98 1015 6 10 0.00 0.00

Powered by AerisWeather